SL-3 R/B

Satellite information

Favourite Embed

Satellite Type and Status

ROCKET BODYIN ORBIT

Key statistics

Satellite SL-3 R/B at a glance.

Uptime

12426

Days in orbit

Revolutions

≈ 14.0

Per day

Orbit

SSO

Sun Synchronous Orbit

Inclination

99.5

Latest

Satellite identification and parameters

Extended collection of information and parameters for SL-3 R/B.

Object identification

Identified? True

Debris? False

Object name: SL-3 R/B

International designator: 1991-061B

Object number (NORAD): 21689

Object ID (CCSDS): 21689

Country: COMMONWEALTH OF INDEPENDENT STATES (CIS)

Current information (Y/N): Y

RCS size: LARGE

Orbital parameters

Period: 102.692 minutes

Inclination: 99.4745 deg

SMA: 7264.141 km

Apoapsis: 904.974 km

Periapsis: 867.037 km

RAAN: 83.7012 deg

Eccentricy: 0.00261125

Argument of periapsis: 141.3452 deg

Mean anomaly: 218.9587 deg

Mean motion: 14.02252993 rev/day

Mean motion (dot): 0.00000411 rev/day2

B* drag term: 0.00029834011 1/REarth

Two-line elements (TLE)

Creation date: Sept. 4, 2025, 10:13 a.m.

Reference frame: TEME

Reference center: EARTH

Epoch: Sept. 4, 2025, 6:12 a.m. UTC

TLE line 0: 0 SL-3 R/B

TLE line 1: 1 21689U 91061B 25247.25894456 .00000411 00000-0 29834-3 0 9991

TLE line 2: 2 21689 99.4745 83.7012 0026112 141.3452 218.9587 14.02252993739982

Live tracking on map

Real-time ground track for satellite SL-3 R/B.

In-orbit conjunctions

A list of the most updated potential collisions computed for object SL-3 R/B.

Target Orbit TCA Probability of collision Miss distance Type
COSMOS 1275 DEB LEO 2025-07-12 19:56:07 0.001725793 32.0 (m) DEBRIS
FENGYUN 1C DEB SSO 2025-07-08 02:16:26 0.002571281 95.0 (m) DEBRIS
COSMOS 1275 DEB LEO 2024-09-21 14:30:41 0.000170482 76.0 (m) DEBRIS

Associated space launch

Indian remote sensing satellite

SL-3 R/B was lifted into orbit during the mission ‘Vostok 8A92M | IRS-1B’, on board a Vostok 8A92M space rocket.

The launch took place on Aug. 29, 1991, 6:48 a.m. from 31/6.

For more information about the launch, click the button.

Launch to space Vostok 8A92M | IRS-1B
Vostok 8A92M | IRS-1B

Agency: N/A

Status: Launch Successful

Launch date: Aug. 29, 1991, 6:48 a.m. UTC

Rocket: Vostok 8A92M

Launch pad: 31/6

Location: Baikonur Cosmodrome, Republic of Kazakhstan

...

Latest news about this satellite

There are no fresh news available about this satellite. Check back as we update our databases every day.


Newsletter sign-up

Weekly statistics, charts and insights to help you stay on top of the space industry.